AEROCUBE 8C

Last updated on Mon Sep 21 2026 00:03:44 GMT+0000 (Coordinated Universal Time)

1 41853U 16067F 26263.11018481 .00004835 00000+0 19229-3 0 9999 2 41853 98.0391 137.6182 0006655 90.9925 269.2074 15.25809784540533
UTC large
Height (km)
Speed (km/s)
/
Latitude / Longitude
Inclination (degrees)
Orbital Period (minutes)
Azimuth
Elevation
Range (km)
Doppler Factor

Next 0 passes for location: London (51.5072 / 0.1276)

No passes found over London.
AEROCUBE 8C